Air Quality Table

TIMESTAMP NO2 SO2 O3 PM10 PM2.5 TEMP HUM AIRPRES WS WD NO
2022-08-20 01:00 0.61 µg/m3 0.27 µg/m3 103.32 µg/m3 N/A N/A 25.67 °C 74.25 % 999.36 mbar 9.74 m/s 279.17 Deg 0.1 µg/m3
2022-08-20 00:00 0.41 µg/m3 0.23 µg/m3 100.46 µg/m3 N/A N/A 25.79 °C 74.43 % 999.56 mbar 10.4 m/s 266.98 Deg 0.1 µg/m3
2022-08-19 23:00 0.48 µg/m3 0.26 µg/m3 99.22 µg/m3 N/A N/A 25.99 °C 74.88 % 999.59 mbar 9.69 m/s 233.3 Deg 0.1 µg/m3
2022-08-19 22:00 0.37 µg/m3 0.26 µg/m3 100.14 µg/m3 N/A N/A 26.35 °C 71.31 % 999.48 mbar 10.24 m/s 208.01 Deg 0.11 µg/m3
2022-08-19 21:00 1.46 µg/m3 0.4 µg/m3 100.84 µg/m3 N/A N/A 26.52 °C 71 % 999.35 mbar 10.37 m/s 250.11 Deg 0.11 µg/m3
2022-08-19 20:00 2.79 µg/m3 0.51 µg/m3 101.73 µg/m3 N/A N/A 26.79 °C 70.3 % 998.57 mbar 10.53 m/s 178.55 Deg 0.12 µg/m3
2022-08-19 19:00 2.97 µg/m3 0.46 µg/m3 104.2 µg/m3 N/A N/A 26.98 °C 68.62 % 998.16 mbar 9.47 m/s 207.23 Deg 0.14 µg/m3
2022-08-19 18:00 1.44 µg/m3 0.39 µg/m3 107.85 µg/m3 N/A N/A 27.72 °C 61.66 % 997.89 mbar 9.09 m/s 211.73 Deg 0.17 µg/m3
2022-08-19 17:00 1.55 µg/m3 0.24 µg/m3 107.28 µg/m3 N/A N/A 27.81 °C 62.81 % 998.18 mbar 8.58 m/s 209.61 Deg 0.15 µg/m3
2022-08-19 16:00 1.18 µg/m3 0.19 µg/m3 106.7 µg/m3 N/A N/A 28.33 °C 67.31 % 998.05 mbar 8.97 m/s 232.22 Deg 0.22 µg/m3
2022-08-19 15:00 3.55 µg/m3 0.18 µg/m3 110.72 µg/m3 N/A N/A 28.82 °C 70.56 % 998.07 mbar 7.91 m/s 156.12 Deg 0.66 µg/m3
2022-08-19 14:00 1.31 µg/m3 0.16 µg/m3 115.18 µg/m3 N/A N/A 28.99 °C 73.88 % 998.49 mbar 7.54 m/s 260.39 Deg 0.29 µg/m3
2022-08-19 13:00 0.91 µg/m3 0.12 µg/m3 110.24 µg/m3 N/A N/A 28.84 °C 78.42 % 998.58 mbar 6.24 m/s 167.59 Deg 0.22 µg/m3
2022-08-19 12:00 1.9 µg/m3 0.14 µg/m3 109.11 µg/m3 N/A N/A 28.55 °C 79.59 % 998.64 mbar 4.84 m/s 184.71 Deg 0.29 µg/m3
2022-08-19 11:00 1.3 µg/m3 0.16 µg/m3 108.8 µg/m3 N/A N/A 28.23 °C 81.79 % 998.87 mbar 4.27 m/s 208.28 Deg 0.24 µg/m3
2022-08-19 10:00 1.29 µg/m3 0.19 µg/m3 104.26 µg/m3 N/A N/A 28.29 °C 80.36 % 998.72 mbar 5.58 m/s 284.43 Deg 0.26 µg/m3
2022-08-19 09:00 2.18 µg/m3 0.16 µg/m3 99.11 µg/m3 N/A N/A 27.71 °C 86.36 % 998.91 mbar 5.13 m/s 189.04 Deg 0.25 µg/m3
2022-08-19 08:00 2.66 µg/m3 0.15 µg/m3 96.35 µg/m3 N/A N/A 27.65 °C 88.84 % 998.34 mbar 4.19 m/s 258.3 Deg 0.76 µg/m3
2022-08-19 07:00 0.82 µg/m3 0.1 µg/m3 94.08 µg/m3 N/A N/A 27.53 °C 90.83 % 997.99 mbar 4.85 m/s 299.83 Deg 0.14 µg/m3
2022-08-19 06:00 0.84 µg/m3 0.13 µg/m3 81.46 µg/m3 N/A N/A 28.03 °C 87.63 % 997.80 mbar 3.9 m/s 200.7 Deg 0.11 µg/m3
2022-08-19 05:00 0.32 µg/m3 0.16 µg/m3 75.89 µg/m3 N/A N/A 28.16 °C 82.11 % 997.30 mbar 3.42 m/s 165.52 Deg 0.09 µg/m3
2022-08-19 04:00 0.6 µg/m3 0.17 µg/m3 67.78 µg/m3 N/A N/A 27.96 °C 83.38 % 997.08 mbar 3.57 m/s 108.8 Deg 0.1 µg/m3
2022-08-19 03:00 2.13 µg/m3 0.17 µg/m3 67.05 µg/m3 N/A N/A 27.95 °C 83.45 % 997.11 mbar 3.02 m/s 123.43 Deg 0.1 µg/m3
2022-08-19 02:00 1.25 µg/m3 0.12 µg/m3 67.41 µg/m3 N/A N/A 27.9 °C 86.11 % 997.49 mbar 2.08 m/s 144.38 Deg 0.09 µg/m3
2022-08-19 01:00 0.2 µg/m3 0.17 µg/m3 74.49 µg/m3 N/A N/A 28.23 °C 88.14 % 998.32 mbar 2.77 m/s 234.1 Deg 0.11 µg/m3
2022-08-19 00:00 -0.16 µg/m3 0.24 µg/m3 75.3 µg/m3 N/A N/A 29.12 °C 76.56 % 997.38 mbar 6.3 m/s 98.28 Deg 0.1 µg/m3
2022-08-18 23:00 0.05 µg/m3 0.26 µg/m3 76.91 µg/m3 N/A N/A 29.3 °C 75.63 % 996.77 mbar 7.45 m/s 66.99 Deg 0.09 µg/m3
2022-08-18 22:00 0.56 µg/m3 0.33 µg/m3 79.7 µg/m3 N/A N/A 30.24 °C 63.85 % 997.01 mbar 7.15 m/s 47.89 Deg 0.09 µg/m3
2022-08-18 21:00 0.58 µg/m3 0.36 µg/m3 81.55 µg/m3 N/A N/A 30.73 °C 56.53 % 996.67 mbar 8.37 m/s 98.05 Deg 0.08 µg/m3
2022-08-18 20:00 1.82 µg/m3 0.45 µg/m3 82.78 µg/m3 N/A N/A 31.44 °C 49.4 % 996.31 mbar 8.39 m/s 75.27 Deg 0.09 µg/m3
2022-08-18 19:00 3.46 µg/m3 0.55 µg/m3 83.27 µg/m3 N/A N/A 31.94 °C 45.84 % 996.35 mbar 7.63 m/s 86.54 Deg 0.15 µg/m3
2022-08-18 18:00 3.76 µg/m3 0.6 µg/m3 84.32 µg/m3 N/A N/A 31.83 °C 53.21 % 996.69 mbar 6.96 m/s 116.14 Deg 0.29 µg/m3
2022-08-18 17:00 3.2 µg/m3 0.65 µg/m3 85.23 µg/m3 N/A N/A 32.26 °C 53.7 % 997.12 mbar 7.11 m/s 71.16 Deg 0.45 µg/m3
2022-08-18 16:00 4.16 µg/m3 0.69 µg/m3 86.65 µg/m3 N/A N/A 32.71 °C 51.51 % 997.48 mbar 7.51 m/s 74.31 Deg 0.69 µg/m3
2022-08-18 15:00 1.44 µg/m3 0.63 µg/m3 87.63 µg/m3 N/A N/A 32.23 °C 52.22 % 997.98 mbar 7.02 m/s 114.27 Deg 0.26 µg/m3
2022-08-18 14:00 1.26 µg/m3 0.69 µg/m3 85.37 µg/m3 N/A N/A 32.23 °C 52.34 % 998.54 mbar 6.53 m/s 88.33 Deg 0.22 µg/m3
2022-08-18 13:00 1.48 µg/m3 0.69 µg/m3 83.71 µg/m3 N/A N/A 33.48 °C 45.57 % 998.75 mbar 7.26 m/s 63.88 Deg 0.3 µg/m3
2022-08-18 12:00 2.13 µg/m3 0.77 µg/m3 88.87 µg/m3 N/A N/A 34.18 °C 41.63 % 999.10 mbar 5.45 m/s 58.38 Deg 0.4 µg/m3
2022-08-18 11:00 2.19 µg/m3 0.67 µg/m3 89.6 µg/m3 N/A N/A 34.76 °C 34.65 % 999.53 mbar 4.03 m/s 78.07 Deg 0.36 µg/m3
2022-08-18 10:00 1.81 µg/m3 0.69 µg/m3 88.69 µg/m3 N/A N/A 33.67 °C 40.19 % 999.48 mbar 4.91 m/s 74.07 Deg 0.3 µg/m3
2022-08-18 09:00 1.84 µg/m3 0.47 µg/m3 87.65 µg/m3 N/A N/A 32.44 °C 47.87 % 999.81 mbar 3.22 m/s 83.76 Deg 0.32 µg/m3
2022-08-18 08:00 1.05 µg/m3 0.19 µg/m3 81.7 µg/m3 N/A N/A 30.11 °C 67.1 % 998.95 mbar 6.73 m/s 103.79 Deg 0.21 µg/m3
2022-08-18 07:00 2.06 µg/m3 0.2 µg/m3 83.08 µg/m3 N/A N/A 28.48 °C 84.96 % 999.22 mbar 5.01 m/s 128.11 Deg 0.2 µg/m3
2022-08-18 06:00 0.89 µg/m3 0.16 µg/m3 77.03 µg/m3 N/A N/A 28.1 °C 88.54 % 998.63 mbar 5.97 m/s 158.85 Deg 0.11 µg/m3
2022-08-18 05:00 1.4 µg/m3 0.41 µg/m3 85.23 µg/m3 N/A N/A 29.13 °C 69.12 % 998.12 mbar 6.07 m/s 67 Deg 0.1 µg/m3
2022-08-18 04:00 5.67 µg/m3 0.57 µg/m3 70.41 µg/m3 N/A N/A 29.19 °C 58.13 % 998.66 mbar 2.58 m/s 85.64 Deg 0.11 µg/m3
2022-08-18 03:00 8.62 µg/m3 0.61 µg/m3 70.25 µg/m3 N/A N/A 29.39 °C 59.56 % 998.95 mbar 1.81 m/s 75.73 Deg 0.09 µg/m3
2022-08-18 02:00 13.28 µg/m3 0.61 µg/m3 63.4 µg/m3 N/A N/A 29.2 °C 64.96 % 998.82 mbar 2.52 m/s 80.37 Deg 0.13 µg/m3
2022-08-18 01:00 9.79 µg/m3 0.54 µg/m3 67.25 µg/m3 N/A N/A 29.34 °C 67.41 % 998.86 mbar 4.41 m/s 19.3 Deg 0.15 µg/m3
2022-08-18 00:00 20.17 µg/m3 0.72 µg/m3 58.26 µg/m3 N/A N/A 30.47 °C 57.26 % 998.92 mbar 4.57 m/s 7.46 Deg 0.15 µg/m3
2022-08-17 23:00 18.37 µg/m3 0.75 µg/m3 61.98 µg/m3 N/A N/A 30.93 °C 57.26 % 999.10 mbar 4.82 m/s 50 Deg 0.15 µg/m3
2022-08-17 22:00 20.71 µg/m3 0.77 µg/m3 64.91 µg/m3 N/A N/A 31.75 °C 53.98 % 999.30 mbar 4.79 m/s 79.96 Deg 0.13 µg/m3
2022-08-17 21:00 23.25 µg/m3 0.69 µg/m3 59.66 µg/m3 N/A N/A 31.37 °C 64.49 % 999.33 mbar 4.35 m/s 80.9 Deg 0.18 µg/m3
2022-08-17 20:00 22.26 µg/m3 0.76 µg/m3 82.27 µg/m3 N/A N/A 31.27 °C 68.21 % 999.06 mbar 4.59 m/s 53.64 Deg 0.17 µg/m3
2022-08-17 19:00 17.68 µg/m3 0.7 µg/m3 96.24 µg/m3 N/A N/A 31.8 °C 63.7 % 998.93 mbar 3.46 m/s 50.44 Deg 0.3 µg/m3
2022-08-17 18:00 5.83 µg/m3 0.82 µg/m3 95.44 µg/m3 N/A N/A 33 °C 56.76 % 999.18 mbar 2.02 m/s 111.74 Deg 0.43 µg/m3
2022-08-17 17:00 1.33 µg/m3 0.55 µg/m3 104.38 µg/m3 N/A N/A 33.31 °C 50.62 % 999.64 mbar 1.89 m/s 282.66 Deg 0.2 µg/m3
2022-08-17 16:00 2.67 µg/m3 0.48 µg/m3 106.2 µg/m3 N/A N/A 33.71 °C 47.93 % 999.86 mbar 2.21 m/s 256.05 Deg 0.28 µg/m3
2022-08-17 15:00 1.78 µg/m3 0.24 µg/m3 105.43 µg/m3 N/A N/A 34.64 °C 34.01 % 999.91 mbar 2.94 m/s 150.58 Deg 0.26 µg/m3
2022-08-17 14:00 1.68 µg/m3 0.15 µg/m3 114.51 µg/m3 N/A N/A 33.73 °C 42.05 % 1,000.00 mbar 3.23 m/s 184.28 Deg 0.31 µg/m3
2022-08-17 13:00 1.56 µg/m3 0.15 µg/m3 115.88 µg/m3 N/A N/A 33.64 °C 41.93 % 1,000.18 mbar 2.7 m/s 179.34 Deg 0.34 µg/m3
2022-08-17 12:00 1.8 µg/m3 0.15 µg/m3 100.41 µg/m3 N/A N/A 33.22 °C 48.7 % 1,000.40 mbar 2 m/s 225.54 Deg 0.36 µg/m3
2022-08-17 11:00 0.74 µg/m3 0.15 µg/m3 99.28 µg/m3 N/A N/A 31.21 °C 67.65 % 1,000.58 mbar 2.19 m/s 144.15 Deg 0.23 µg/m3
2022-08-17 10:00 0.81 µg/m3 0.11 µg/m3 101.01 µg/m3 N/A N/A 29.65 °C 74.47 % 1,000.42 mbar 3.15 m/s 101.86 Deg 0.23 µg/m3
2022-08-17 09:00 3.41 µg/m3 0.14 µg/m3 94.27 µg/m3 N/A N/A 29.8 °C 70.36 % 1,000.33 mbar 2.3 m/s 149.19 Deg 0.6 µg/m3
2022-08-17 08:00 2.69 µg/m3 0.13 µg/m3 84.98 µg/m3 N/A N/A 27.99 °C 92.13 % 1,000.53 mbar 1.08 m/s 191.78 Deg 0.49 µg/m3
2022-08-17 07:00 0.5 µg/m3 0.15 µg/m3 81.12 µg/m3 N/A N/A 27.35 °C 99.33 % 1,000.32 mbar 0.78 m/s 287.59 Deg 0.14 µg/m3
2022-08-17 06:00 0.81 µg/m3 0.16 µg/m3 76.54 µg/m3 N/A N/A 27.1 °C 98.92 % 999.67 mbar 1.62 m/s 221.52 Deg 0.11 µg/m3
2022-08-17 05:00 0.43 µg/m3 0.13 µg/m3 90.75 µg/m3 N/A N/A 27.25 °C 98.72 % 999.55 mbar 2.67 m/s 207.52 Deg 0.11 µg/m3
2022-08-17 04:00 0.58 µg/m3 0.16 µg/m3 79.52 µg/m3 N/A N/A 27.3 °C 97.41 % 999.45 mbar 4.17 m/s 202.63 Deg 0.12 µg/m3
2022-08-17 03:00 2.09 µg/m3 0.15 µg/m3 84.04 µg/m3 N/A N/A 27.14 °C 96.65 % 999.56 mbar 4.01 m/s 197.08 Deg 0.12 µg/m3
2022-08-17 02:00 -0.02 µg/m3 0.16 µg/m3 89.18 µg/m3 N/A N/A 27.14 °C 97.4 % 999.65 mbar 4.61 m/s 195.41 Deg 0.12 µg/m3
2022-08-17 01:00 -0.06 µg/m3 0.14 µg/m3 83.02 µg/m3 N/A N/A 27.22 °C 97.03 % 1,000.01 mbar 4.61 m/s 166.17 Deg 0.11 µg/m3
2022-08-17 00:00 0.3 µg/m3 0.13 µg/m3 78.17 µg/m3 N/A N/A 27.36 °C 95.85 % 1,000.41 mbar 2.83 m/s 152.43 Deg 0.1 µg/m3
2022-08-16 23:00 0.77 µg/m3 0.15 µg/m3 77.56 µg/m3 N/A N/A 27.53 °C 93.97 % 1,000.52 mbar 2.42 m/s 166.68 Deg 0.1 µg/m3
2022-08-16 22:00 0.96 µg/m3 0.19 µg/m3 73.6 µg/m3 N/A N/A 27.56 °C 93.61 % 1,000.59 mbar 2.19 m/s 158.98 Deg 0.09 µg/m3
2022-08-16 21:00 0.75 µg/m3 0.15 µg/m3 75.87 µg/m3 N/A N/A 27.69 °C 94.98 % 1,000.53 mbar 2.76 m/s 170.98 Deg 0.12 µg/m3
2022-08-16 20:00 0.68 µg/m3 0.16 µg/m3 80.63 µg/m3 N/A N/A 27.96 °C 93.54 % 1,000.14 mbar 3.16 m/s 177.39 Deg 0.14 µg/m3
2022-08-16 19:00 0.44 µg/m3 0.16 µg/m3 89.06 µg/m3 N/A N/A 28.54 °C 88.73 % 999.63 mbar 3.23 m/s 148.79 Deg 0.15 µg/m3
2022-08-16 18:00 1.12 µg/m3 0.19 µg/m3 89.85 µg/m3 N/A N/A 28.84 °C 88.06 % 999.65 mbar 2.59 m/s 167.98 Deg 0.21 µg/m3
2022-08-16 17:00 -0.13 µg/m3 0.18 µg/m3 90.24 µg/m3 N/A N/A 28.91 °C 88.3 % 999.93 mbar 3.29 m/s 132.11 Deg 0.93 µg/m3
2022-08-16 16:00 0.43 µg/m3 0.14 µg/m3 89.9 µg/m3 N/A N/A 29.18 °C 87.15 % 1,000.17 mbar 4.16 m/s 150.03 Deg 0.27 µg/m3
2022-08-16 15:00 0.4 µg/m3 0.14 µg/m3 94.61 µg/m3 N/A N/A 29.09 °C 86.78 % 1,000.44 mbar 3.95 m/s 106.97 Deg 0.26 µg/m3
2022-08-16 14:00 0.87 µg/m3 0.15 µg/m3 101.22 µg/m3 N/A N/A 30 °C 78.12 % 1,000.18 mbar 4.48 m/s 170.04 Deg 0.3 µg/m3
2022-08-16 13:00 1.43 µg/m3 0.15 µg/m3 104.78 µg/m3 N/A N/A 30.67 °C 69.09 % 1,000.07 mbar 4.77 m/s 206.48 Deg 0.34 µg/m3
2022-08-16 12:00 1.63 µg/m3 0.14 µg/m3 111.88 µg/m3 N/A N/A 31.2 °C 61.67 % 999.92 mbar 3.53 m/s 53.08 Deg 0.31 µg/m3
2022-08-16 11:00 1.55 µg/m3 0.17 µg/m3 101.27 µg/m3 N/A N/A 30.52 °C 67.36 % 999.73 mbar 3.75 m/s 120.61 Deg 0.29 µg/m3
2022-08-16 10:00 1.13 µg/m3 0.18 µg/m3 104.54 µg/m3 N/A N/A 29.99 °C 72.25 % 999.66 mbar 3.69 m/s 166.78 Deg 0.26 µg/m3
2022-08-16 09:00 0.79 µg/m3 0.15 µg/m3 106.74 µg/m3 N/A N/A 29.21 °C 74.71 % 999.21 mbar 4.5 m/s 127.89 Deg 0.19 µg/m3
2022-08-16 08:00 0.87 µg/m3 0.12 µg/m3 108.29 µg/m3 N/A N/A 27.97 °C 86.63 % 998.68 mbar 5.41 m/s 89.23 Deg 0.18 µg/m3
2022-08-16 07:00 1.52 µg/m3 0.13 µg/m3 106.27 µg/m3 N/A N/A 27.24 °C 91.8 % 998.27 mbar 6.01 m/s 134.95 Deg 0.14 µg/m3
2022-08-16 06:00 2.12 µg/m3 0.11 µg/m3 85.21 µg/m3 N/A N/A 26.81 °C 95.71 % 998.19 mbar 5.45 m/s 183.66 Deg 0.13 µg/m3
2022-08-16 05:00 2.83 µg/m3 0.14 µg/m3 83.41 µg/m3 N/A N/A 26.84 °C 94.96 % 998.52 mbar 4.25 m/s 191.59 Deg 0.14 µg/m3
2022-08-16 04:00 1.1 µg/m3 0.17 µg/m3 77 µg/m3 N/A N/A 26.82 °C 94.34 % 998.74 mbar 2.38 m/s 124.6 Deg 0.13 µg/m3
2022-08-16 03:00 3.23 µg/m3 0.11 µg/m3 74.69 µg/m3 N/A N/A 26.99 °C 89.23 % 998.55 mbar 2.61 m/s 121.75 Deg 0.12 µg/m3
2022-08-16 02:00 1.31 µg/m3 0.11 µg/m3 80.41 µg/m3 N/A N/A 27.08 °C 87.84 % 998.45 mbar 2.36 m/s 64.34 Deg 0.11 µg/m3
2022-08-16 01:00 0.89 µg/m3 0.13 µg/m3 84.02 µg/m3 N/A N/A 27.05 °C 91.96 % 999.96 mbar 1.36 m/s 261.08 Deg 0.11 µg/m3
2022-08-16 00:00 0.19 µg/m3 0.14 µg/m3 83.61 µg/m3 N/A N/A 27.4 °C 92.22 % 1,000.90 mbar 4.43 m/s 208.6 Deg 0.18 µg/m3
2022-08-15 23:00 0.77 µg/m3 0.14 µg/m3 82.85 µg/m3 N/A N/A 27.34 °C 91.15 % 1,000.43 mbar 2.73 m/s 257.17 Deg 0.14 µg/m3
2022-08-15 22:00 0.28 µg/m3 0.14 µg/m3 88.87 µg/m3 N/A N/A 27.51 °C 88.78 % 998.90 mbar 4.44 m/s 115.09 Deg 0.13 µg/m3
2022-08-15 21:00 1.02 µg/m3 0.15 µg/m3 94.55 µg/m3 N/A N/A 27.66 °C 86.2 % 998.46 mbar 3.29 m/s 75.62 Deg 0.13 µg/m3
2022-08-15 20:00 1.89 µg/m3 0.12 µg/m3 95.27 µg/m3 N/A N/A 27.8 °C 85.11 % 997.56 mbar 3.61 m/s 89.17 Deg 0.14 µg/m3
2022-08-15 19:00 1.11 µg/m3 0.17 µg/m3 100.51 µg/m3 N/A N/A 28.11 °C 83.31 % 996.90 mbar 4.29 m/s 78.46 Deg 0.16 µg/m3
2022-08-15 18:00 0.65 µg/m3 0.19 µg/m3 104.97 µg/m3 N/A N/A 28.43 °C 82.21 % 996.81 mbar 6.27 m/s 76.88 Deg 0.19 µg/m3
2022-08-15 17:00 0.75 µg/m3 0.39 µg/m3 103.85 µg/m3 N/A N/A 28.82 °C 79.57 % 997.06 mbar 6.04 m/s 141.68 Deg 0.23 µg/m3
2022-08-15 16:00 0.96 µg/m3 0.6 µg/m3 109.32 µg/m3 N/A N/A 29.27 °C 75.19 % 997.65 mbar 5.59 m/s 119.96 Deg 0.29 µg/m3
2022-08-15 15:00 1.25 µg/m3 0.64 µg/m3 114.53 µg/m3 N/A N/A 29.16 °C 75.5 % 997.72 mbar 5.74 m/s 78.09 Deg 0.32 µg/m3
2022-08-15 14:00 1.59 µg/m3 0.23 µg/m3 110.49 µg/m3 N/A N/A 29.76 °C 72.08 % 997.79 mbar 4.86 m/s 109.13 Deg 0.38 µg/m3
2022-08-15 13:00 3.4 µg/m3 0.16 µg/m3 121.4 µg/m3 N/A N/A 29.95 °C 76.58 % 997.96 mbar 3.1 m/s 169.63 Deg 0.56 µg/m3
2022-08-15 12:00 3.14 µg/m3 0.62 µg/m3 124.33 µg/m3 N/A N/A 29.95 °C 73.38 % 998.06 mbar 2.66 m/s 164.06 Deg 0.49 µg/m3
2022-08-15 11:00 2.94 µg/m3 0.92 µg/m3 123.21 µg/m3 N/A N/A 29.59 °C 71.58 % 998.29 mbar 2.47 m/s 179.69 Deg 0.4 µg/m3
2022-08-15 10:00 4.43 µg/m3 1.14 µg/m3 118.52 µg/m3 N/A N/A 29.29 °C 70.41 % 998.19 mbar 1.86 m/s 150.04 Deg 0.55 µg/m3
2022-08-15 09:00 6.84 µg/m3 1.21 µg/m3 111.42 µg/m3 N/A N/A 27.93 °C 73.59 % 998.00 mbar 3.05 m/s 16.47 Deg 0.84 µg/m3
2022-08-15 08:00 10.84 µg/m3 1.06 µg/m3 102.7 µg/m3 N/A N/A 27.14 °C 79.65 % 997.53 mbar 3.94 m/s 55.71 Deg 1.1 µg/m3
2022-08-15 07:00 9.01 µg/m3 0.68 µg/m3 93.22 µg/m3 N/A N/A 25.87 °C 88.17 % 997.29 mbar 2.93 m/s 21.84 Deg 0.63 µg/m3
2022-08-15 06:00 3.13 µg/m3 0.59 µg/m3 99.85 µg/m3 N/A N/A 25.26 °C 89.79 % 996.76 mbar 3.24 m/s 86.22 Deg 0.14 µg/m3
2022-08-15 05:00 3.93 µg/m3 0.49 µg/m3 93.47 µg/m3 N/A N/A 25.05 °C 94.4 % 996.37 mbar 3.11 m/s 87.32 Deg 0.15 µg/m3
2022-08-15 04:00 3.62 µg/m3 0.49 µg/m3 98.25 µg/m3 N/A N/A 25.05 °C 93.66 % 996.67 mbar 2.27 m/s 73.74 Deg 0.13 µg/m3
2022-08-15 03:00 5.72 µg/m3 0.46 µg/m3 96.69 µg/m3 N/A N/A 25.45 °C 92.99 % 996.74 mbar 1.97 m/s 125.45 Deg 0.09 µg/m3
2022-08-15 02:00 2.79 µg/m3 0.5 µg/m3 105.68 µg/m3 N/A N/A 25.96 °C 89.06 % 996.88 mbar 1.31 m/s 161.97 Deg 0.07 µg/m3
2022-08-15 01:00 2.16 µg/m3 0.36 µg/m3 105.16 µg/m3 N/A N/A 25.98 °C 90.17 % 997.09 mbar 1.27 m/s 94.88 Deg 0.08 µg/m3
2022-08-15 00:00 3.02 µg/m3 0.27 µg/m3 99.7 µg/m3 N/A N/A 26.04 °C 91.53 % 997.22 mbar 0.99 m/s 83.01 Deg 0.11 µg/m3
2022-08-14 23:00 4.15 µg/m3 0.23 µg/m3 93.2 µg/m3 N/A N/A 26.18 °C 89.93 % 997.01 mbar 1.35 m/s 179.68 Deg 0.13 µg/m3
2022-08-14 22:00 4.08 µg/m3 0.38 µg/m3 101.18 µg/m3 N/A N/A 26.81 °C 83.9 % 997.15 mbar 1.28 m/s 253.99 Deg 0.14 µg/m3
2022-08-14 21:00 3.49 µg/m3 0.51 µg/m3 113.54 µg/m3 N/A N/A 27.21 °C 82.48 % 996.86 mbar 2.15 m/s 171.37 Deg 0.18 µg/m3
2022-08-14 20:00 3.39 µg/m3 0.53 µg/m3 121.2 µg/m3 N/A N/A 27.42 °C 80.3 % 996.14 mbar 3.65 m/s 176.05 Deg 0.23 µg/m3
2022-08-14 19:00 1.8 µg/m3 0.52 µg/m3 126.8 µg/m3 N/A N/A 27.7 °C 77.94 % 995.69 mbar 3.98 m/s 185.96 Deg 0.26 µg/m3
2022-08-14 18:00 1.83 µg/m3 0.72 µg/m3 130.42 µg/m3 N/A N/A 28.16 °C 73.35 % 995.58 mbar 4.21 m/s 124.83 Deg 0.31 µg/m3
2022-08-14 17:00 2.1 µg/m3 0.73 µg/m3 124.9 µg/m3 N/A N/A 28.64 °C 67.21 % 995.70 mbar 3.54 m/s 195.62 Deg 0.46 µg/m3
2022-08-14 16:00 2.23 µg/m3 0.49 µg/m3 123.54 µg/m3 N/A N/A 28.58 °C 63.78 % 995.85 mbar 3.75 m/s 216.72 Deg 0.47 µg/m3
2022-08-14 15:00 2.26 µg/m3 0.17 µg/m3 121.74 µg/m3 N/A N/A 28.4 °C 66.67 % 996.28 mbar 3.56 m/s 243.67 Deg 0.57 µg/m3
2022-08-14 14:00 2.96 µg/m3 0.15 µg/m3 122.44 µg/m3 N/A N/A 27.62 °C 79.26 % 996.78 mbar 3.3 m/s 265.89 Deg 0.66 µg/m3
2022-08-14 13:00 2.02 µg/m3 0.15 µg/m3 118.29 µg/m3 N/A N/A 27.43 °C 86.76 % 997.04 mbar 3.03 m/s 242.6 Deg 0.56 µg/m3
2022-08-14 12:00 2.22 µg/m3 0.15 µg/m3 117.04 µg/m3 N/A N/A 27.39 °C 88.41 % 997.26 mbar 2.74 m/s 280.87 Deg 0.53 µg/m3
2022-08-14 11:00 1.78 µg/m3 0.13 µg/m3 112.64 µg/m3 N/A N/A 27.19 °C 91.2 % 997.51 mbar 2.87 m/s 262.21 Deg 0.4 µg/m3
2022-08-14 10:00 1.67 µg/m3 0.15 µg/m3 105.86 µg/m3 N/A N/A 27.71 °C 87.94 % 997.42 mbar 3.85 m/s 167.47 Deg 0.42 µg/m3
2022-08-14 09:00 1.75 µg/m3 0.19 µg/m3 108.93 µg/m3 N/A N/A 27.75 °C 86.82 % 997.30 mbar 4.01 m/s 119.61 Deg 0.44 µg/m3
2022-08-14 08:00 2.18 µg/m3 0.17 µg/m3 106.05 µg/m3 N/A N/A 27.43 °C 87.45 % 996.92 mbar 3.41 m/s 156.76 Deg 0.44 µg/m3
2022-08-14 07:00 1.29 µg/m3 0.15 µg/m3 104.26 µg/m3 N/A N/A 26.86 °C 90.68 % 996.68 mbar 3.94 m/s 156.65 Deg 0.28 µg/m3
2022-08-14 06:00 1.35 µg/m3 0.14 µg/m3 103.86 µg/m3 N/A N/A 26.49 °C 91.03 % 996.87 mbar 3.51 m/s 182.35 Deg 0.23 µg/m3
2022-08-14 05:00 0.98 µg/m3 0.18 µg/m3 111.12 µg/m3 N/A N/A 26.55 °C 90.7 % 997.16 mbar 3.67 m/s 206.07 Deg 0.22 µg/m3
2022-08-14 04:00 2.25 µg/m3 0.28 µg/m3 104.44 µg/m3 N/A N/A 26.62 °C 89.31 % 997.49 mbar 3.79 m/s 230.59 Deg 0.25 µg/m3
2022-08-14 03:00 2.78 µg/m3 0.3 µg/m3 109.39 µg/m3 N/A N/A 26.78 °C 86.43 % 997.92 mbar 4.21 m/s 177.57 Deg 0.23 µg/m3
2022-08-14 02:00 3.46 µg/m3 0.4 µg/m3 106.66 µg/m3 N/A N/A 26.91 °C 84.4 % 998.30 mbar 4.53 m/s 188.89 Deg 0.24 µg/m3
2022-08-14 01:00 0.85 µg/m3 0.3 µg/m3 105.92 µg/m3 N/A N/A 27.01 °C 83.24 % 998.80 mbar 5.14 m/s 185.74 Deg 0.26 µg/m3
2022-08-14 00:00 1.06 µg/m3 0.55 µg/m3 107.9 µg/m3 N/A N/A 27.04 °C 83.68 % 999.20 mbar 5.31 m/s 224.2 Deg 0.27 µg/m3
2022-08-13 23:00 1.15 µg/m3 0.53 µg/m3 106.27 µg/m3 N/A N/A 27.06 °C 81.41 % 999.03 mbar 4.96 m/s 216.69 Deg 0.27 µg/m3
2022-08-13 22:00 0.96 µg/m3 0.49 µg/m3 111.46 µg/m3 N/A N/A 27.18 °C 77.87 % 999.05 mbar 5.5 m/s 140.16 Deg 0.27 µg/m3
2022-08-13 21:00 1.49 µg/m3 0.52 µg/m3 114.71 µg/m3 N/A N/A 27.24 °C 76.32 % 998.99 mbar 5.95 m/s 160.11 Deg 0.25 µg/m3
2022-08-13 20:00 0.91 µg/m3 0.45 µg/m3 118.95 µg/m3 N/A N/A 27.3 °C 74.79 % 998.78 mbar 6.74 m/s 189.51 Deg 0.26 µg/m3
2022-08-13 19:00 1.06 µg/m3 0.61 µg/m3 116.09 µg/m3 N/A N/A 27.33 °C 75.3 % 998.50 mbar 6.63 m/s 182.45 Deg 0.32 µg/m3
2022-08-13 18:00 1.62 µg/m3 0.73 µg/m3 114.86 µg/m3 N/A N/A 27.64 °C 72.85 % 998.53 mbar 6.33 m/s 134.58 Deg 0.42 µg/m3
2022-08-13 17:00 2.46 µg/m3 0.64 µg/m3 116.79 µg/m3 N/A N/A 27.98 °C 70.76 % 998.87 mbar 5.87 m/s 189.72 Deg 0.56 µg/m3
2022-08-13 16:00 2.99 µg/m3 0.57 µg/m3 120.77 µg/m3 N/A N/A 28.11 °C 70.09 % 999.39 mbar 5.13 m/s 168.23 Deg 0.72 µg/m3
2022-08-13 15:00 3.17 µg/m3 0.58 µg/m3 115.64 µg/m3 N/A N/A 27.86 °C 75.38 % 999.98 mbar 5.37 m/s 232.91 Deg 0.78 µg/m3
2022-08-13 14:00 3.63 µg/m3 0.63 µg/m3 114.71 µg/m3 N/A N/A 27.8 °C 73.45 % 1,000.15 mbar 5.6 m/s 221.28 Deg 0.8 µg/m3
2022-08-13 13:00 4.05 µg/m3 0.67 µg/m3 117.49 µg/m3 N/A N/A 27.63 °C 75.62 % 1,000.38 mbar 5.3 m/s 245.56 Deg 0.91 µg/m3
2022-08-13 12:00 4.6 µg/m3 0.67 µg/m3 120.74 µg/m3 N/A N/A 27.46 °C 78.13 % 1,000.71 mbar 4.55 m/s 169.83 Deg 0.93 µg/m3
2022-08-13 11:00 4 µg/m3 0.74 µg/m3 126.81 µg/m3 N/A N/A 27 °C 79.39 % 1,000.93 mbar 4.77 m/s 275.58 Deg 0.67 µg/m3
2022-08-13 10:00 5.72 µg/m3 0.67 µg/m3 123.13 µg/m3 N/A N/A 26.78 °C 77.39 % 1,000.66 mbar 4.2 m/s 202.44 Deg 1.17 µg/m3
2022-08-13 09:00 10.96 µg/m3 0.99 µg/m3 108.46 µg/m3 N/A N/A 26.5 °C 79.04 % 1,000.30 mbar 4.07 m/s 195.52 Deg 1.76 µg/m3
2022-08-13 08:00 7.18 µg/m3 0.77 µg/m3 109.51 µg/m3 N/A N/A 26.2 °C 79.36 % 1,000.00 mbar 3.44 m/s 184.69 Deg 1.02 µg/m3
2022-08-13 07:00 8.8 µg/m3 0.78 µg/m3 105.97 µg/m3 N/A N/A 25.8 °C 74.59 % 999.60 mbar 1.92 m/s 218.46 Deg 0.7 µg/m3
2022-08-13 06:00 7 µg/m3 0.88 µg/m3 110.49 µg/m3 N/A N/A 25.42 °C 73.88 % 999.30 mbar 1.45 m/s 240.97 Deg 0.2 µg/m3
2022-08-13 05:00 6.46 µg/m3 1.01 µg/m3 111.64 µg/m3 N/A N/A 25.41 °C 74.49 % 999.21 mbar 1.91 m/s 253.29 Deg 0.23 µg/m3
2022-08-13 04:00 6.66 µg/m3 1.02 µg/m3 115.51 µg/m3 N/A N/A 25.4 °C 77.64 % 999.24 mbar 2.92 m/s 243.1 Deg 0.3 µg/m3
2022-08-13 03:00 7.51 µg/m3 0.48 µg/m3 112.17 µg/m3 N/A N/A 25.2 °C 83.39 % 999.12 mbar 2.42 m/s 208.52 Deg 0.32 µg/m3

It is to be noted that the data is provisional and subject to quality assurance procedures. For validated data kindly refer your request to contact.air@era.org.mt